User: anonymous   Login
Location: Hartman Creek State Park
(44.3257°N, 89.2134°W)
Time: 13:06:16
(UTC-05:00)
Language:

BREEZE-M DEB (TANK) - Orbit

View from above orbital plane
View from above orbital plane
View from above satellite
View from above satellite

Ground track
Ground track

The orbit data is extracted from the following two-line orbital elements,

1 29649U 06056B   16179.98071091  .00001755  00000-0  25232-3 0  9991
2 29649  49.4564 132.6090 5395814 300.4937  17.1272  4.98574972170087
Epoch (UTC): 27 June 2016 23:32:13
Eccentricity: 0.5395814
inclination: 49.4564°
perigee height: 286 km
apogee height: 15905 km
right ascension of ascending node: 132.6090°
argument of perigee: 300.4937°
revolutions per day: 4.98574972
mean anomaly at epoch: 17.1272°
orbit number at epoch: 17008

The dashed part of the orbit path shows where the satellite is in the earth's shadow,  

DLR